Weather in Voskresenskoye

Russia / Tver Oblast     56°39′46″N   31°45′33″E
temp.,
°C
wind,
m/s
gust,
m/s
humid.,
%
clouds,
%
prec.,
mm/h
press.,
hPa
HPBL,
m
5 august, thu
thu500:00+13e2273100 0.0 101728
03:00+14e2476100 0.0 101692
06:00+13e2583100 0.1 1015139
09:00+13e1395100 1.4 1015135
12:00+13ene4899100 9.4 1014314
15:00+13e4898100 12.8 1013491
18:00+13e2699100 1.7 1012441
21:00+13n129988 1.8 1012103
6 august, fri
fri600:00+12n2599100 0.2 1012243
03:00+12n2599100 0.2 1012232
06:00+12nne259994 0.0 1012246
09:00+13ene3593100 0.0 1011465
12:00+15ene3585100 0.0 1011585
15:00+17ene3682100 0.1 1009660
18:00+16ene4997100 1.5 1008509
21:00+15e51099100 4.9 1007432
7 august, sat
sat700:00+16ese41199100 1.2 1006429
03:00+17ese41099100 2.3 1005458
06:00+16ese41098100 0.9 1005528
09:00+17se369798 0.9 1005366
12:00+17sse369697 0.1 1006468
15:00+23s466078 0.3 10051388
18:00+20sw4770100 0.0 1006632
21:00+15sw36810 0.0 1008362
8 august, sun
sun800:00+12s2897100 0.0 1009297
03:00+14ssw3790100 0.0 1009440
06:00+13ssw3798100 0.2 1010427
09:00+14sw3799100 0.7 1011461
12:00+17sw368890 0.2 1013727
15:00+21wsw466472 0.6 10141301
18:00+21wsw356321 0.1 10141037
21:00+16sse2285100 0.1 101517
9 august, mon
mon900:00+14s2284100 0.0 101636
03:00+14sse258098 0.0 101685
06:00+14sse38915 0.0 1016167
09:00+20s4866100 0.0 1016341
12:00+21sse3868100 0.0 1016498
15:00+27ssw58476 0.0 10151726
18:00+23s3106699 0.0 1014689
21:00+18wsw2897100 1.6 1015198